This is the latest recevied weather packets stored in our database for station/object N4CRH-13. If no packets are shown the sender has not sent any weather packets the latest 10 day(s).
| Time | Temp. | Humidity | Pressure | Rain* | Wind** | Luminosity | Snow |
|---|---|---|---|---|---|---|---|
| 1777532824 | 0.56° C | 96% | 1298.6 hPa | 0 mm | - | 0 W/m² | - |
| 1777532519 | 0.56° C | 96% | 1298.5 hPa | 0 mm | - | 0 W/m² | - |
| 1777532217 | 0.56° C | 96% | 1298.6 hPa | 0 mm | - | 0 W/m² | - |
| 1777531913 | 0.56° C | 95% | 1298.7 hPa | 0 mm | - | 0 W/m² | - |
| 1777531609 | 0.56° C | 95% | 1298.6 hPa | 1.78 mm | - | 0 W/m² | - |
| 1777531004 | 1.11° C | 95% | 1298.6 hPa | 1.27 mm | - | 0 W/m² | - |
| 1777530701 | 1.11° C | 95% | 1298.7 hPa | 1.27 mm | - | 0 W/m² | - |
| 1777530398 | 1.11° C | 95% | 1298.6 hPa | 1.78 mm | - | 0 W/m² | - |
| 1777530094 | 1.11° C | 95% | 1298.7 hPa | 3.05 mm | - | 0 W/m² | - |
| 1777529792 | 1.11° C | 94% | 1298.4 hPa | 1.27 mm | - | 0 W/m² | - |
| 1777529488 | 1.67° C | 94% | 1298.8 hPa | 1.78 mm | - | 0 W/m² | - |
| 1777529186 | 1.67° C | 95% | 1298.6 hPa | 3.56 mm | - | 0 W/m² | - |
| 1777528881 | 1.67° C | 95% | 1298.6 hPa | 1.78 mm | - | 0 W/m² | - |
| 1777528578 | 2.22° C | 95% | 1298.6 hPa | 1.27 mm | - | 0 W/m² | - |
| 1777528275 | 2.22° C | 95% | 1298.6 hPa | 1.78 mm | - | 0 W/m² | - |
| 1777527974 | 2.22° C | 95% | 1299 hPa | 3.05 mm | - | 0 W/m² | - |
| 1777527669 | 2.22° C | 95% | 1298.7 hPa | 1.27 mm | - | 0 W/m² | - |
| 1777527364 | 2.22° C | 95% | 1299.1 hPa | 1.78 mm | - | 0 W/m² | - |
| 1777527060 | 2.22° C | 95% | 1299 hPa | 3.05 mm | - | 0 W/m² | - |
| 1777526756 | 2.22° C | 94% | 1299 hPa | 1.27 mm | - | 0 W/m² | - |
| 1777526452 | 2.22° C | 94% | 1298.7 hPa | 1.78 mm | - | 0 W/m² | - |
| 1777526151 | 2.78° C | 94% | 1298.8 hPa | 1.78 mm | - | 0 W/m² | - |
| 1777525848 | 2.78° C | 94% | 1299.2 hPa | 0 mm | - | 0 W/m² | - |
| 1777525546 | 3.33° C | 94% | 1299 hPa | 0 mm | - | 0 W/m² | - |
| 1777525242 | 3.33° C | 93% | 1298.8 hPa | 1.27 mm | - | 0 W/m² | - |
* Rain latest hour (hover to see other rain measurements)
** Current wind speed in m/s (hover to see current wind gust speed)